Theta_e
348 347 346 342 318 313 309 314 320 318 320 326 327 322 323 327 319 310 338 344 346 346 349 352 357 356 355 354 354 357 356 358 360 359 360 359 361 362 358 361 362 361 360 358 359 360 360 359 359
339 344 344 333 310 304 308 318 318 322 326 329 329 328 325 323 334 335 337 345 347 347 347 350 359 357 355 355 355 357 357 358 360 360 361 361 361 361 362 361 359 359 359 360 361 360 359 359 359
340 343 333 319 313 304 308 319 321 325 328 328 326 331 328 327 336 336 343 346 347 347 348 349 357 358 356 356 357 358 359 359 361 360 362 362 361 361 361 358 356 355 355 357 358 358 357 358 358
342 338 336 316 312 316 318 319 324 324 326 329 329 324 332 339 337 341 345 347 347 348 348 355 357 358 357 357 358 359 360 361 361 361 362 362 360 361 360 361 362 360 359 356 354 353 355 355 354
341 333 320 313 314 320 322 325 325 323 326 325 328 325 328 338 343 344 344 347 347 348 351 354 361 360 360 359 359 360 361 362 362 362 362 361 361 360 359 359 359 359 358 356 355 353 351 351 352
331 329 315 312 316 322 325 329 327 326 327 328 327 327 329 340 340 343 345 348 351 351 352 353 359 360 361 362 361 361 362 361 361 362 361 361 360 360 360 359 358 359 357 355 355 353 353 353 353
327 323 315 317 318 319 323 329 326 325 325 326 331 323 331 338 343 345 345 349 352 352 352 352 353 357 361 362 361 360 362 360 360 360 359 361 361 360 359 359 359 359 359 358 357 357 356 356 357
334 325 318 318 317 319 326 328 329 326 325 334 333 323 323 335 344 344 346 348 346 348 350 349 350 351 352 351 362 361 361 360 361 360 360 360 360 360 361 361 360 358 358 358 358 358 358 358 359
335 319 315 317 319 323 332 324 330 332 329 331 333 331 335 342 343 341 340 340 342 345 343 345 348 347 350 352 357 362 363 363 361 359 360 356 350 350 354 357 360 359 360 359 359 360 361 361 359
326 317 319 324 324 326 330 325 326 326 327 328 330 336 340 341 340 336 336 337 337 338 340 343 346 346 350 356 353 352 356 354 352 350 350 347 348 348 355 356 353 355 358 362 362 363 363 361 354
325 319 325 327 330 328 330 325 328 325 323 327 327 331 335 336 336 334 335 337 338 340 342 345 344 345 346 351 350 351 349 347 342 343 341 344 347 344 346 341 337 339 349 347 352 351 353 353 351
320 326 325 327 330 328 327 332 325 327 326 333 333 333 333 333 332 333 336 338 339 340 343 345 344 344 342 348 347 348 349 347 336 335 344 339 337 340 341 343 344 344 345 345 346 347 348 347 344
320 323 326 328 328 329 331 329 327 328 331 334 333 333 332 332 334 337 339 340 341 340 339 344 342 342 342 346 346 346 346 346 346 347 346 334 334 336 342 344 343 344 343 343 343 344 344 342 342
327 327 326 327 326 328 328 328 328 328 332 331 331 331 332 333 335 336 336 339 340 340 336 343 341 340 345 344 345 345 346 343 342 342 343 337 341 343 344 344 345 345 344 343 341 343 343 340 340
327 320 325 325 326 327 328 322 322 328 331 330 330 331 333 335 337 335 337 338 338 339 337 342 340 345 345 343 343 343 343 344 336 336 344 345 345 344 343 344 344 348 351 351 348 346 346 343 343
322 322 315 323 327 328 325 313 324 328 328 327 329 330 332 334 336 337 338 339 339 340 341 343 346 343 343 341 341 342 343 342 339 338 343 342 347 342 343 341 343 349 345 347 347 346 342 344 342
317 311 314 318 328 324 323 316 323 328 326 324 326 328 331 331 335 337 339 341 341 342 342 342 339 340 339 340 340 339 343 342 338 340 337 342 344 346 340 340 347 348 347 348 348 347 346 341 341
307 307 311 312 322 325 321 319 322 325 325 324 325 327 329 329 333 338 339 341 342 342 342 339 337 339 339 341 343 340 342 340 337 340 341 344 339 342 335 345 344 348 349 348 349 349 348 345 341
316 313 311 318 323 321 320 318 320 323 326 326 323 326 326 330 334 338 340 341 341 340 338 336 336 338 341 336 340 337 339 340 339 343 346 342 337 338 347 342 346 343 343 344 351 351 346 342 338
306 306 312 317 321 319 316 318 322 322 323 327 325 326 326 326 330 335 338 339 339 339 338 337 338 338 340 338 340 340 343 343 342 344 344 339 335 340 348 345 339 336 340 346 350 350 345 339 338
304 308 312 314 319 321 317 313 317 322 327 330 328 328 327 328 329 332 336 338 339 339 338 339 339 339 342 342 346 343 342 342 341 343 343 345 345 345 349 348 334 336 338 342 349 347 341 336 337
301 317 317 315 312 306 315 304 313 318 320 325 325 326 325 328 330 332 333 336 338 339 341 340 340 340 343 344 342 339 337 335 337 340 341 342 348 344 348 349 341 343 345 346 351 348 339 338 333
310 319 316 312 306 306 309 303 309 315 315 319 326 325 329 328 331 332 334 337 339 341 341 342 341 341 342 344 341 337 336 336 338 340 342 339 344 345 345 349 347 346 344 346 348 342 333 333 331
320 314 311 308 304 297 305 305 303 307 312 318 326 328 329 330 330 333 335 338 339 341 342 341 341 340 341 343 342 338 337 338 340 337 340 339 341 344 346 346 347 346 340 345 349 346 335 337 337
314 306 294 293 297 295 303 304 305 315 318 319 322 328 329 332 331 332 334 336 337 340 341 341 340 339 341 343 343 343 340 340 340 339 341 338 339 340 342 345 347 345 344 347 349 347 344 338 342
305 302 298 294 293 297 307 300 310 321 324 324 324 329 329 331 334 333 336 338 338 340 342 342 340 338 341 343 343 344 341 341 341 341 341 340 340 340 342 343 346 347 348 347 349 346 346 346 346
302 298 308 299 295 293 300 309 319 322 323 324 323 327 327 328 332 334 336 338 339 340 342 342 341 340 341 344 343 342 344 344 342 342 342 342 343 345 345 344 346 345 347 348 348 345 344 347 346
306 305 298 294 291 286 295 303 304 311 318 324 322 323 326 327 331 333 335 337 339 342 344 345 343 342 343 344 345 343 344 346 345 343 344 346 345 347 351 346 347 347 346 349 346 345 345 346 346
296 293 294 295 294 290 294 299 315 314 317 318 318 321 323 324 328 332 334 337 339 341 344 346 344 342 342 344 345 345 346 347 346 346 346 344 345 344 347 347 347 348 347 346 342 343 344 342 343
300 294 291 289 289 290 290 294 315 318 320 322 321 321 324 329 326 328 332 335 337 338 343 346 345 344 345 345 345 345 345 346 347 347 346 346 346 345 343 346 346 346 346 346 344 343 347 343 342
Wind_Speed
0 2 1 1 3 5 3 4 2 6 3 3 13 7 10 6 1 4 3 5 7 4 4 6 8 7 5 7 6 9 9 8 12 12 13 13 13 13 13 12 13 11 12 12 11 12 13 11 11
0 3 1 1 5 5 3 5 8 6 9 18 10 8 8 5 4 10 6 7 6 6 4 5 9 9 8 8 7 9 10 8 11 12 12 13 12 12 12 12 11 11 10 11 11 11 10 10 10
2 3 2 3 3 4 5 2 13 10 5 5 6 6 5 4 9 9 9 9 6 6 4 5 10 10 9 8 8 7 10 10 11 12 12 12 11 10 11 11 10 10 10 10 9 8 7 7 8
1 2 2 4 4 5 3 8 9 14 13 11 11 10 5 3 8 7 12 10 8 6 4 8 10 10 9 7 8 7 9 10 10 11 11 11 10 10 9 8 8 7 8 8 8 7 6 6 8
1 1 2 5 3 4 3 9 10 7 7 11 5 6 6 7 13 16 12 10 9 6 4 5 9 10 10 7 8 9 7 10 11 10 10 10 8 8 6 6 6 7 8 7 6 5 6 6 8
3 1 4 5 7 4 4 4 11 17 13 14 13 10 4 13 16 11 10 10 7 7 5 4 9 11 11 11 9 9 8 7 9 9 9 8 7 6 6 6 5 7 8 8 7 5 6 9 8
3 2 2 10 8 3 3 3 11 16 11 7 10 6 4 10 11 10 9 7 6 5 5 4 3 8 11 10 11 10 8 9 8 8 8 7 6 6 6 5 6 6 6 6 6 6 7 7 7
2 3 2 4 7 3 7 5 11 16 5 13 10 7 6 4 12 10 9 5 4 4 5 4 1 3 5 6 11 12 9 7 7 5 7 5 6 6 7 6 4 4 4 4 4 5 5 4 4
1 3 3 3 4 4 2 7 8 5 13 5 3 9 12 15 15 12 8 4 3 4 3 3 3 2 4 4 6 10 11 9 7 5 5 6 3 4 5 3 4 5 5 5 4 4 4 5 4
4 3 2 1 3 3 3 12 9 9 12 12 15 13 18 17 15 14 11 9 5 5 3 3 4 3 3 2 4 3 4 3 2 1 3 2 2 2 4 7 11 10 9 8 7 7 8 7 4
2 1 1 2 2 5 4 12 8 17 11 19 21 18 18 15 12 11 11 10 9 7 4 5 5 4 3 3 2 2 2 2 2 2 3 3 2 2 3 2 3 3 7 4 5 4 3 4 3
4 7 5 3 2 1 2 6 10 6 7 17 21 22 18 16 12 12 11 10 8 9 7 6 6 5 4 2 2 3 3 2 1 2 2 1 1 2 2 1 2 3 2 4 3 3 4 5 6
3 7 11 5 4 5 8 4 10 4 16 18 19 20 19 15 11 9 10 10 9 8 6 7 6 5 4 4 2 2 2 2 2 2 2 1 2 2 3 2 3 3 2 2 2 2 3 4 5
7 8 8 10 8 4 2 6 11 9 18 19 20 18 17 17 15 11 10 10 11 9 7 7 7 6 5 5 4 3 2 3 3 2 2 3 3 0 2 3 4 4 3 3 1 1 1 1 4
9 6 5 4 10 6 4 5 7 19 21 18 18 17 17 16 14 15 13 12 11 10 9 9 7 6 7 6 4 3 4 4 3 3 5 4 4 2 2 4 4 4 4 3 1 2 1 3 3
5 3 2 8 10 2 0 3 3 20 21 19 17 16 15 16 16 14 12 12 9 9 9 7 8 7 6 6 4 3 4 4 2 4 3 2 3 4 2 3 3 4 4 4 4 3 3 2 5
7 2 6 7 4 3 7 4 8 3 14 16 18 17 14 12 13 12 13 11 10 9 11 7 7 7 6 5 3 3 4 3 3 2 1 2 3 1 1 3 3 4 3 4 3 2 3 5 4
5 5 3 11 3 5 9 5 8 5 8 9 18 15 16 16 17 15 14 11 8 8 9 7 5 7 6 4 2 3 3 1 1 2 1 4 2 4 2 1 3 4 3 5 3 5 7 6 7
9 4 9 0 8 8 4 6 13 5 8 7 13 16 16 17 13 13 12 11 9 6 6 7 7 5 5 2 3 2 3 1 1 3 2 1 0 2 3 1 5 5 5 3 4 2 7 6 2
2 7 7 10 8 3 5 4 6 2 2 3 8 14 14 8 11 14 13 11 10 8 8 7 8 7 4 3 2 3 4 2 1 1 2 2 2 1 1 2 4 4 4 5 5 5 4 4 4
3 2 6 4 12 1 7 2 3 5 6 3 4 6 10 14 15 14 15 14 11 10 9 10 7 9 6 6 4 3 4 3 2 1 2 3 4 3 3 4 5 3 3 3 3 3 6 4 2
1 10 5 11 5 3 4 5 6 7 10 8 9 7 7 13 11 13 15 14 14 12 6 6 7 7 5 6 4 4 4 3 3 2 1 2 4 2 3 4 4 3 1 3 3 3 2 2 3
1 6 5 8 3 2 3 2 3 5 12 10 9 10 10 14 18 17 17 17 14 10 11 8 6 5 7 6 6 5 3 2 1 2 4 3 3 4 3 3 4 3 2 2 4 4 3 2 2
14 8 7 6 3 2 4 3 5 6 15 9 9 9 9 7 13 12 8 9 10 9 8 6 7 6 5 7 7 7 7 5 2 2 3 3 2 2 4 4 2 2 2 1 4 4 2 2 1
12 6 4 4 3 5 4 2 9 7 9 16 17 14 11 7 9 13 12 11 10 11 10 7 7 7 7 7 7 7 7 6 7 5 4 5 2 2 4 3 4 2 2 2 3 4 4 4 2
9 8 7 1 3 1 5 5 4 7 7 12 17 20 16 12 8 14 14 13 13 13 11 10 8 7 7 6 7 7 6 4 4 5 4 4 4 4 4 5 5 5 4 3 2 1 2 2 2
4 4 10 2 3 2 4 7 5 6 5 8 16 19 22 21 17 17 14 12 13 13 14 13 11 9 8 7 5 5 6 6 5 6 4 4 4 4 6 6 6 6 5 4 4 2 2 2 1
9 9 9 2 3 3 2 4 5 5 4 4 5 14 18 21 23 17 15 14 11 13 13 13 11 13 10 8 6 6 6 6 6 5 6 6 6 5 5 7 7 6 5 4 4 3 2 4 2
1 1 7 7 3 5 4 7 7 3 7 6 4 4 6 9 14 18 16 15 14 12 13 12 11 10 9 8 6 6 5 6 5 5 6 6 5 5 5 6 6 6 6 5 4 4 4 3 4
6 3 5 6 4 2 3 5 6 4 8 8 4 7 8 7 9 9 9 12 11 11 10 13 12 10 9 8 7 7 5 5 5 6 6 5 6 6 6 5 5 6 5 6 7 7 5 5 5
Wind_Direction
213 161 210 67 52 63 33 37 83 102 74 299 155 121 110 32 108 165 131 136 135 125 144 146 150 151 131 106 122 98 100 111 113 109 111 115 107 111 113 107 105 106 101 104 102 101 95 93 93
320 207 19 53 73 64 5 349 86 92 122 99 81 97 58 61 52 114 104 142 137 127 125 125 139 140 136 146 143 114 106 110 113 116 114 111 111 112 109 106 100 99 96 102 99 97 94 89 82
257 231 51 76 90 126 135 78 117 118 87 92 103 70 70 85 108 131 129 133 118 102 117 143 142 143 147 164 129 127 123 126 118 124 119 116 116 115 107 104 108 107 106 99 98 93 90 76 57
14 22 43 73 74 19 130 151 141 101 70 77 109 77 75 118 137 133 134 135 116 114 134 145 146 145 154 160 130 135 124 126 125 123 122 121 111 114 114 111 105 90 89 91 93 88 78 56 38
58 83 65 87 91 76 46 105 129 101 80 88 75 87 82 146 111 128 135 134 130 126 133 146 152 148 145 146 134 129 136 130 130 131 122 122 116 109 109 99 86 74 75 87 79 77 60 47 32
33 115 69 88 106 106 275 163 114 86 91 100 95 104 51 129 128 138 135 138 139 128 131 156 150 151 147 146 141 136 137 140 122 122 124 120 118 107 93 84 78 58 58 61 49 33 32 35 26
89 36 43 125 128 153 236 189 115 113 122 117 134 88 108 130 139 131 130 127 130 118 127 128 159 152 149 138 137 140 144 133 123 117 114 112 98 95 93 77 62 51 45 50 37 13 27 35 29
103 98 99 73 157 125 159 111 124 137 96 111 147 136 168 171 142 125 125 105 113 117 124 125 46 101 121 132 140 139 147 141 121 116 103 107 104 99 87 59 42 47 35 30 23 6 10 25 17
79 57 44 36 130 140 225 129 144 109 131 144 134 130 144 136 134 132 121 101 105 131 139 132 125 86 100 113 147 149 150 153 145 142 142 79 47 34 54 33 16 6 352 345 342 348 326 321 321
51 68 310 111 303 336 94 144 138 130 136 108 99 104 129 139 147 148 150 157 166 167 189 176 146 153 144 130 125 144 143 97 103 128 92 84 77 29 5 20 14 1 341 316 315 316 303 318 321
28 135 190 202 49 340 13 136 149 146 143 152 144 146 147 149 159 157 152 166 176 172 174 182 173 172 187 157 143 92 83 98 51 28 54 9 40 23 60 51 7 354 330 327 329 323 301 304 290
132 145 197 230 48 329 276 342 177 170 165 154 149 150 149 162 167 162 161 173 164 173 182 176 187 177 210 164 150 113 101 102 134 187 90 144 55 43 77 59 287 278 317 312 312 301 305 306 297
204 171 214 244 248 265 307 256 180 190 138 145 147 152 156 161 169 165 175 164 165 182 173 180 180 190 201 175 156 118 156 212 198 184 143 115 102 21 316 12 322 323 323 310 348 351 314 301 305
192 156 201 199 221 282 231 223 119 189 145 152 159 163 161 166 173 154 165 165 180 176 181 174 191 201 189 181 178 181 157 184 157 177 140 137 99 82 314 2 0 4 341 310 4 349 1 357 11
107 102 153 180 157 241 270 107 163 151 154 157 166 171 174 171 165 169 169 166 176 187 176 181 192 202 200 178 191 175 176 178 194 163 168 151 113 117 12 23 3 336 319 314 240 235 97 72 78
90 88 57 157 174 230 315 182 192 149 153 168 174 174 179 179 170 171 166 169 168 162 173 176 181 190 189 155 188 176 185 162 187 170 172 97 141 92 35 7 353 344 355 2 39 20 25 74 66
26 115 349 332 249 220 217 145 188 148 173 168 179 175 179 174 174 172 171 170 175 167 167 188 156 158 159 139 180 166 159 151 182 188 163 101 65 72 21 18 6 5 6 17 17 4 27 53 63
163 131 128 244 225 269 222 156 150 172 204 161 173 169 176 181 182 174 170 170 165 171 173 166 160 139 134 137 117 89 113 130 163 223 236 107 161 140 50 355 47 32 20 18 9 57 59 80 104
138 165 187 94 60 307 337 159 172 158 135 150 171 171 175 186 177 165 168 168 160 165 158 167 153 150 138 120 127 113 162 168 199 232 162 175 93 108 52 5 55 27 44 9 351 102 85 83 97
233 240 172 129 196 210 41 232 311 85 14 166 173 178 173 145 158 166 167 172 174 181 181 167 167 159 157 118 177 131 141 173 137 200 147 157 181 230 43 29 59 53 45 17 17 37 92 73 346
291 206 186 135 157 50 135 51 297 92 295 245 140 159 159 158 163 167 171 179 180 189 193 175 177 163 158 161 113 72 76 69 72 62 150 212 216 202 193 102 77 67 70 24 26 43 84 134 233
183 241 120 138 134 171 249 182 215 189 205 210 175 132 166 163 168 169 170 175 191 195 169 193 165 167 155 132 122 145 146 145 192 180 146 185 206 212 214 138 119 96 76 68 49 59 120 118 155
271 31 93 112 107 109 212 135 229 156 200 201 191 165 173 176 170 177 178 179 184 180 180 188 162 185 152 153 153 143 151 157 160 137 178 190 209 206 227 164 150 139 105 59 92 90 111 159 130
115 88 43 45 84 354 154 109 259 198 218 180 177 160 170 179 174 175 172 162 158 166 174 165 165 186 183 157 159 168 175 178 164 208 205 198 226 213 221 185 186 193 165 136 109 122 167 158 151
117 120 26 8 23 235 85 85 243 198 208 185 177 169 181 188 168 170 161 165 163 165 171 168 173 196 190 184 166 181 193 188 195 201 205 182 184 220 216 178 186 207 233 232 142 149 170 211 226
196 144 131 136 210 274 40 241 248 228 255 221 178 167 165 173 191 187 181 174 177 171 172 179 175 200 192 201 191 178 178 206 211 202 198 220 204 200 189 200 200 207 211 218 201 130 132 184 331
193 119 123 308 264 95 216 276 289 220 328 147 159 160 178 179 182 187 183 183 177 175 177 187 181 193 192 194 203 201 187 194 213 229 214 199 214 225 213 199 204 207 220 195 179 162 134 151 172
165 167 112 318 295 256 277 273 247 301 79 2 203 192 187 180 178 187 172 179 183 184 182 182 186 189 195 189 189 201 202 204 207 211 214 208 223 225 228 202 195 194 208 198 188 198 200 158 198
102 177 55 122 185 177 149 257 348 335 135 111 117 131 193 198 196 189 182 183 174 177 180 182 185 179 180 187 192 195 211 214 209 209 228 216 219 219 222 209 191 194 196 190 199 235 220 191 211
92 123 127 119 205 243 159 262 333 75 99 114 161 186 170 168 178 194 187 179 176 176 178 182 184 182 190 178 174 195 199 212 210 221 232 225 217 214 199 190 198 198 201 196 196 212 209 226 228